Wind_Gust
10 10 10 12 13 12 12 16 16 18 19 20 20 13 6 12 15 13 5 21 12 15 12 10 9 4 8 10 7 7 3 5 9 11 13 20 21 18 17 17 16 17 18 14 18 18 15 16 19 19 17 15 17 17 17 17 16 16 15 14 14 13 9 14 15 16 14 17 18 14 13 15 13 14 9 6 7 8 8 9 9 9 7 7 8 9
13 10 14 12 15 16 15 14 14 19 17 18 15 12 13 14 14 15 15 16 9 9 4 4 2 5 7 12 14 12 10 11 8 5 8 19 20 20 21 18 17 14 7 12 11 11 12 17 19 20 19 17 19 17 18 18 18 16 15 15 16 11 9 10 11 15 13 10 18 18 16 15 12 13 11 11 11 10 9 10 9 9 5 7 9 8
13 17 15 17 17 17 17 12 15 18 16 11 10 8 7 13 17 15 7 16 6 6 7 5 2 6 10 8 13 15 14 10 7 8 12 20 19 18 20 18 14 12 13 12 12 11 12 16 18 19 19 18 20 21 23 21 22 21 19 17 13 11 6 10 12 6 7 10 14 14 14 17 17 10 11 11 13 11 11 10 9 9 7 6 8 8
10 18 23 19 16 14 14 17 12 17 14 8 10 12 16 11 11 13 11 3 18 14 8 7 4 8 8 9 10 10 11 10 9 17 10 23 24 23 24 23 22 17 19 18 18 16 12 16 19 20 21 22 22 21 18 21 21 19 16 14 13 11 10 11 7 8 14 14 10 13 11 10 13 13 6 9 12 10 11 11 8 7 8 6 9 9
21 18 16 17 17 16 15 12 14 5 5 3 3 7 7 11 16 16 13 16 10 4 6 8 4 6 5 14 15 15 13 12 14 7 13 9 18 19 25 21 23 25 24 20 17 15 16 19 21 21 18 15 17 18 21 20 19 17 16 16 17 16 13 14 11 13 16 11 9 10 9 9 15 13 10 12 11 11 9 10 9 10 8 9 8 12
21 19 14 22 19 21 20 18 11 8 2 6 4 5 8 15 17 16 16 15 16 15 5 8 12 12 10 15 18 16 15 11 14 19 14 19 6 12 21 23 21 21 24 26 25 24 22 22 18 15 16 18 19 19 16 19 20 20 20 18 17 17 13 12 12 15 18 16 14 15 17 12 11 15 13 14 15 14 14 16 13 9 9 9 8 8
19 11 14 16 25 20 21 16 6 8 5 5 10 8 11 13 15 16 19 15 9 10 8 12 13 14 6 7 8 12 13 19 14 16 21 17 15 14 13 19 25 24 16 14 15 18 21 20 19 17 21 20 17 10 13 17 20 22 20 20 19 16 14 16 14 15 19 8 8 10 10 7 12 15 15 11 6 10 11 11 12 11 10 9 10 11
17 14 12 8 14 8 9 4 5 8 10 13 7 13 12 17 14 16 16 16 16 8 15 10 10 11 12 14 12 16 12 7 14 24 16 21 17 20 18 19 8 11 11 14 15 19 15 16 22 23 22 20 18 15 16 19 19 21 22 21 20 17 16 16 17 17 18 21 20 16 13 8 9 14 14 11 12 9 9 11 9 9 11 14 15 17
17 17 13 13 8 10 11 9 4 10 15 9 10 18 19 6 10 21 15 10 8 3 13 6 7 16 13 13 17 14 13 12 13 16 17 16 18 16 17 18 14 10 15 19 23 22 21 17 10 11 16 11 9 15 15 18 18 20 23 23 20 17 16 17 16 18 19 19 19 17 18 16 12 11 10 8 9 11 9 8 8 8 10 9 9 14
17 15 16 18 6 8 6 5 8 12 15 11 13 12 13 11 12 5 8 8 10 9 14 7 4 18 15 8 12 7 11 10 9 11 13 18 16 18 19 20 18 18 17 18 22 22 18 18 18 20 11 10 5 4 4 11 15 17 22 22 21 19 19 19 19 20 18 18 16 17 15 18 13 13 11 10 11 10 8 8 8 9 9 14 13 10
14 9 10 12 18 16 11 10 10 12 14 5 15 15 14 12 11 4 8 10 12 14 6 2 7 8 16 6 8 11 4 3 3 7 8 11 15 17 18 17 14 14 13 14 16 17 19 14 11 9 9 5 6 5 6 10 16 17 19 21 23 20 21 20 20 18 19 17 15 17 17 17 14 14 15 13 11 10 9 9 9 10 10 14 12 11
18 14 11 10 12 11 11 10 12 12 8 13 9 7 5 11 7 7 5 4 13 19 6 8 12 5 12 8 14 7 8 11 10 9 10 13 14 14 12 14 14 13 13 13 11 6 9 11 11 10 8 7 7 7 14 19 23 16 12 19 21 20 20 18 18 18 19 19 17 14 18 19 17 15 16 16 15 13 13 11 10 10 10 10 11 11
16 14 6 15 9 13 9 5 9 10 6 3 3 3 6 8 6 9 10 14 16 21 8 10 16 20 6 5 5 6 9 10 12 13 14 15 16 14 15 13 12 13 11 13 13 14 12 11 10 6 4 6 6 12 19 24 25 19 14 14 21 18 13 13 14 17 16 15 18 19 18 17 17 14 15 14 14 13 13 12 10 10 12 12 11 11
12 10 13 11 5 11 8 10 9 10 10 7 8 7 9 10 9 10 10 17 13 12 5 6 10 9 9 7 9 8 9 10 9 12 18 20 20 21 23 21 16 16 15 13 14 13 12 12 10 9 7 8 11 12 17 18 22 27 19 12 13 14 12 9 11 17 17 15 16 17 20 19 18 15 14 13 14 13 13 13 12 13 14 14 13 12
7 14 18 11 16 14 16 15 12 10 9 20 10 12 14 12 15 13 12 15 17 13 3 5 4 9 5 7 5 9 10 11 14 21 20 20 20 17 21 23 20 17 15 16 15 14 12 13 11 11 13 11 18 19 21 16 15 18 27 27 23 17 15 14 16 15 19 18 17 19 20 23 20 18 15 14 11 12 14 13 13 13 13 14 12 13
14 16 11 20 9 26 19 19 16 17 17 11 15 9 7 15 11 15 10 3 4 7 11 7 6 4 10 6 5 9 11 15 17 22 22 22 21 20 23 23 22 19 16 15 12 10 9 9 9 10 11 15 17 21 15 11 17 19 24 24 22 21 20 19 18 16 18 17 17 16 20 24 26 20 16 13 9 10 11 11 15 14 14 14 12 11
8 12 7 15 14 18 17 16 19 11 14 11 17 20 20 11 9 10 12 9 8 9 10 8 9 10 9 4 9 12 19 22 22 22 22 19 20 19 19 19 18 15 13 12 15 11 11 10 8 7 7 7 8 11 20 22 21 21 16 16 19 19 19 20 17 14 14 14 15 15 13 15 20 23 20 17 13 10 10 10 11 15 15 14 13 13
7 11 4 14 17 15 18 17 12 18 20 18 10 12 17 17 13 16 14 7 8 10 10 13 10 6 7 8 11 14 18 17 19 21 16 16 19 20 17 16 15 18 16 11 15 18 14 13 11 5 5 7 8 9 12 11 8 5 6 11 17 17 14 8 7 10 13 14 14 13 11 7 15 21 21 19 16 12 12 8 9 12 14 13 14 14
11 8 7 11 17 11 16 10 15 12 11 13 18 5 12 7 13 10 13 8 5 8 8 6 15 8 5 8 7 12 16 15 17 15 19 20 20 19 19 19 16 16 20 22 19 21 23 22 18 13 12 8 6 9 5 7 6 8 8 12 12 15 13 10 7 9 12 11 10 10 9 7 6 9 15 16 15 12 12 10 12 13 14 14 14 14
7 8 10 7 15 11 10 9 10 11 15 12 9 14 6 7 6 6 12 7 12 7 4 8 14 7 6 9 10 13 16 15 15 17 17 16 18 17 17 16 16 16 19 22 24 27 28 31 26 18 15 15 7 8 7 6 7 5 5 13 16 12 10 12 13 9 13 11 8 8 8 6 5 4 11 13 13 13 13 12 14 15 15 16 14 13
9 12 11 10 12 7 14 15 11 5 4 12 10 12 10 13 8 7 9 9 9 10 10 10 6 7 8 12 11 10 11 12 13 13 14 16 16 17 17 16 16 18 20 22 23 22 23 25 26 27 20 15 12 9 7 7 10 10 6 7 10 14 16 15 12 11 12 12 8 8 10 10 7 8 9 12 12 12 11 13 15 16 16 15 13 13
9 14 18 6 11 5 5 13 4 11 7 10 13 14 12 6 9 10 16 11 13 11 10 9 9 9 8 9 11 11 10 13 12 12 16 16 16 15 18 19 20 20 19 22 21 21 20 19 22 27 24 18 11 11 11 11 6 5 4 7 13 13 18 18 18 19 16 14 8 10 12 9 7 8 8 11 13 12 13 15 15 16 15 14 12 12
9 5 9 4 7 7 11 6 9 9 18 25 24 16 14 15 17 10 10 10 7 8 8 10 18 4 4 5 3 8 12 15 16 14 15 13 13 14 14 12 16 22 25 27 24 23 22 20 18 20 23 26 23 16 13 14 16 12 5 6 9 11 13 11 15 17 18 13 12 11 10 10 10 7 9 13 13 14 15 16 15 15 16 14 11 10
12 10 4 5 7 9 14 12 15 20 18 16 22 23 19 11 4 8 7 6 6 4 8 8 10 6 5 6 6 5 8 9 14 15 14 13 11 12 14 15 20 23 22 22 23 22 21 21 22 21 21 25 25 24 23 19 17 14 9 8 8 8 9 11 11 15 13 13 13 13 10 11 10 9 10 13 12 16 17 16 15 14 15 13 11 10
15 11 8 4 5 12 14 14 14 21 26 17 14 15 14 10 11 5 6 10 11 12 7 11 8 5 6 4 6 9 14 17 18 17 16 18 15 15 20 20 24 23 22 22 23 22 22 22 23 22 21 20 18 19 21 22 20 20 19 12 8 7 10 7 11 15 19 10 11 8 13 12 11 13 10 12 14 16 17 17 15 14 15 13 10 7
12 3 8 5 6 8 9 6 8 12 14 11 13 15 16 14 12 9 6 6 9 10 11 12 10 7 11 11 16 16 16 18 19 19 19 20 19 19 20 21 23 23 23 23 22 23 23 22 22 22 20 21 21 21 18 18 18 18 19 19 17 12 9 7 6 10 8 9 8 6 10 10 9 15 16 17 17 16 17 17 16 15 13 12 9 9
7 8 9 8 9 10 7 6 6 4 4 14 14 16 15 13 12 9 11 11 8 4 13 5 14 15 10 12 16 17 18 19 19 21 22 21 21 20 19 20 20 21 21 21 20 20 20 21 22 21 21 21 20 20 20 19 19 19 18 19 18 18 17 10 6 11 9 13 14 9 13 16 10 15 20 18 18 15 17 16 14 14 13 9 11 11
8 11 9 5 8 13 14 8 7 10 12 12 12 7 15 14 12 18 10 7 2 8 9 6 14 17 13 15 16 17 17 17 18 18 18 19 19 21 20 20 19 20 19 19 19 20 20 20 20 21 21 22 21 20 20 18 18 18 18 17 18 18 16 14 7 5 12 16 13 15 15 14 11 14 10 14 16 17 16 17 14 13 9 11 11 10
7 7 6 8 5 5 6 6 15 16 19 21 19 15 15 13 17 18 13 5 4 4 13 10 13 16 16 15 16 18 18 18 17 17 16 15 17 19 20 20 20 21 20 21 20 20 21 21 20 20 20 20 20 21 19 19 20 20 19 19 19 18 16 18 8 14 15 14 13 15 12 11 11 9 9 9 12 12 16 15 14 11 13 13 10 8
9 4 9 12 9 7 6 8 13 21 21 25 21 17 18 18 17 17 17 15 18 17 18 20 20 20 16 15 18 19 18 17 16 14 17 20 19 18 18 20 20 20 21 21 21 21 20 21 21 21 20 20 21 21 21 20 20 20 20 21 22 20 19 19 6 13 14 17 13 14 16 16 14 12 7 13 11 13 12 12 10 10 13 13 10 8
4 7 5 9 4 10 16 19 22 22 22 23 19 20 16 15 17 16 18 18 13 16 15 16 18 19 15 15 18 18 17 15 17 20 18 17 17 18 18 19 20 20 21 20 21 21 21 22 22 22 22 21 21 21 20 19 19 18 20 21 20 22 21 21 21 12 11 15 14 18 17 18 18 15 12 11 10 13 15 14 12 10 10 13 16 17
5 8 6 4 8 8 17 17 16 20 23 23 19 19 16 13 15 16 20 12 11 11 9 15 15 12 12 17 18 17 17 19 19 18 16 16 16 17 18 18 19 20 20 21 21 21 22 22 22 22 21 21 21 20 20 19 19 21 22 20 22 22 22 24 23 20 20 14 13 17 17 19 19 17 14 11 9 14 16 15 15 17 15 18 20 20
4 9 6 7 5 4 11 18 15 12 8 12 15 16 11 14 16 18 20 20 20 6 10 11 9 9 11 13 17 16 17 18 18 18 15 14 15 15 17 17 19 20 21 21 22 22 21 20 19 20 19 18 21 22 20 19 20 21 21 20 18 21 26 25 23 23 22 20 17 16 15 16 17 16 12 6 13 14 16 18 18 18 18 18 16 18
2 3 3 5 7 7 13 13 10 7 8 7 7 11 10 13 14 20 17 18 18 16 14 11 11 10 12 13 16 15 17 19 18 16 14 13 12 13 15 15 17 17 18 19 19 19 18 19 19 19 19 18 18 18 17 18 19 17 17 18 19 21 22 26 26 25 25 24 23 19 16 16 18 18 16 15 15 16 16 18 17 17 17 18 20 21
4 3 4 6 10 10 9 14 11 5 8 6 6 12 13 19 23 24 20 19 17 15 13 14 12 13 14 14 15 16 17 17 18 17 15 15 13 14 14 14 16 17 18 16 16 15 17 17 18 19 20 18 18 18 19 20 18 16 20 21 22 22 20 22 27 27 24 25 24 21 19 17 18 19 18 18 15 17 17 17 17 20 18 20 20 19
4 3 5 2 6 7 9 5 8 7 7 8 8 9 6 9 9 11 18 19 18 16 13 13 12 11 12 12 13 13 15 13 16 20 17 17 16 14 15 16 15 16 16 16 16 15 14 15 16 16 16 17 18 18 19 18 16 18 19 19 22 21 21 21 27 26 25 25 24 21 20 19 19 19 18 16 16 17 16 16 16 18 19 21 20 16
4 3 7 5 5 13 6 12 14 13 10 8 5 11 10 5 6 6 12 14 15 13 12 10 9 7 8 12 12 10 13 15 19 19 18 16 15 15 15 14 14 14 14 14 15 16 15 12 13 14 15 16 17 19 18 17 17 18 20 22 20 20 20 22 28 25 24 23 22 22 21 20 19 21 20 18 19 18 15 16 16 14 14 23 17 17
4 6 2 8 8 13 15 14 12 10 9 6 6 5 2 2 3 3 10 7 10 13 11 8 9 6 6 3 3 8 9 7 17 13 14 12 12 11 12 13 14 15 15 14 15 16 16 16 15 14 14 14 17 17 16 16 17 18 21 20 19 21 22 26 26 22 22 21 21 22 22 20 19 21 20 19 18 15 13 14 14 16 13 18 18 16
4 8 8 10 6 9 10 12 6 8 7 3 6 8 11 4 4 3 4 8 7 11 13 10 10 9 8 8 9 8 13 8 9 9 8 9 11 11 10 11 11 12 13 14 14 16 17 17 16 16 16 16 17 16 14 15 17 21 22 21 19 21 25 24 22 21 20 19 19 20 21 21 20 20 21 21 17 15 14 14 13 14 16 16 17 16
12 7 7 2 4 7 8 9 7 9 10 6 11 11 11 5 2 3 6 5 7 10 10 11 10 10 8 7 8 16 12 15 13 6 4 8 9 11 13 13 14 14 13 12 12 12 13 14 18 21 21 22 19 14 14 13 18 20 21 21 20 23 23 20 17 15 15 17 19 20 21 20 20 19 19 18 15 14 13 11 14 16 18 17 16 17
8 9 7 6 6 12 14 11 12 7 4 5 13 12 6 6 5 3 5 4 6 10 11 10 12 11 10 11 9 14 12 12 11 7 7 8 12 15 14 15 15 15 16 15 14 11 14 15 16 17 18 17 17 16 15 16 18 20 19 20 22 23 19 15 12 11 11 14 18 20 20 19 20 20 18 15 13 13 13 15 16 16 17 17 14 14
10 6 6 10 11 9 7 10 9 9 3 9 15 7 7 6 7 9 6 8 11 12 12 13 14 13 13 15 14 15 13 11 10 7 8 10 11 10 12 13 15 16 16 14 14 13 14 14 14 14 15 14 15 15 16 17 20 18 18 20 21 16 14 14 13 12 12 13 15 13 16 17 16 14 16 15 14 14 13 12 14 15 15 13 12 13
7 8 7 6 5 5 9 13 8 7 6 15 15 8 14 9 7 11 13 13 13 12 12 12 13 12 12 16 13 13 12 10 9 9 8 8 10 12 12 13 15 15 16 16 16 15 13 14 14 14 13 13 13 12 13 15 18 18 17 21 17 14 14 14 14 15 15 15 15 16 16 15 14 15 15 16 14 13 13 10 9 9 10 12 9 10
11 9 10 5 3 9 8 10 8 5 7 14 11 11 8 13 14 12 13 15 11 10 10 10 11 12 13 15 14 12 10 9 8 7 8 8 9 10 11 11 12 13 13 14 14 14 12 12 12 12 10 10 11 12 11 13 15 16 18 18 13 13 14 15 14 14 17 17 16 16 17 16 15 14 13 13 13 13 13 13 12 12 9 4 5 8
18 12 7 14 7 9 11 11 6 2 9 13 17 15 15 13 12 14 14 14 13 12 9 11 11 11 12 13 13 11 11 9 9 7 9 9 9 9 10 10 10 11 11 11 12 12 12 14 12 11 12 11 7 8 9 8 11 12 14 11 11 12 12 13 15 16 17 15 15 15 14 16 16 16 16 15 15 16 15 14 14 16 14 16 17 14
3 10 6 27 24 21 22 11 7 10 13 15 15 15 18 16 15 14 14 14 11 10 9 12 10 11 11 9 13 11 11 8 8 7 7 8 8 7 7 9 10 9 9 10 10 11 10 11 11 12 12 13 12 9 6 7 8 10 7 5 6 7 9 11 13 15 14 15 15 15 14 15 14 14 15 14 14 15 14 14 14 14 14 15 14 14
5 6 12 20 13 9 20 5 15 17 17 19 19 18 17 16 18 15 15 14 12 11 12 12 12 11 12 11 12 11 9 8 10 9 8 7 8 8 7 7 6 7 8 9 9 9 10 8 10 11 11 11 11 10 9 6 6 7 4 3 2 3 3 3 5 6 7 9 9 9 11 12 12 12 13 13 12 12 13 13 12 13 14 14 13 14
11 6 23 14 16 19 18 13 16 17 18 17 17 18 19 19 18 15 14 13 14 13 13 13 12 13 10 11 10 10 10 8 9 7 7 6 5 4 4 4 3 4 4 4 5 6 7 8 8 10 10 11 10 8 8 8 4 4 3 2 3 5 5 7 6 5 4 4 4 5 5 7 7 10 10 12 13 14 14 13 12 14 13 11 10 12
16 10 12 10 24 21 20 16 17 18 17 16 15 14 14 15 17 15 15 16 15 14 14 13 11 13 11 11 9 9 9 6 5 4 4 3 4 3 2 2 1 1 2 4 5 5 6 6 10 10 11 10 11 11 7 5 7 6 2 1 3 4 4 5 4 7 8 7 7 6 5 5 5 7 9 11 13 13 11 10 10 11 11 10 9 6
16 21 19 17 23 14 16 20 14 20 16 17 16 15 15 15 16 15 13 15 14 13 11 11 9 9 11 12 12 9 9 6 4 4 4 4 3 1 2 1 1 1 1 1 1 2 3 4 6 8 10 12 11 9 11 10 9 7 4 7 9 6 6 3 5 4 6 7 7 7 7 4 7 8 7 9 10 12 14 13 16 12 11 11 13 16
17 21 14 12 12 18 15 14 14 15 15 15 17 16 17 15 15 14 14 15 14 14 12 11 12 11 9 8 9 11 10 8 7 6 5 4 5 6 5 3 3 4 4 4 3 2 1 1 1 3 6 8 10 12 11 12 8 12 11 9 8 9 10 8 4 5 6 7 8 7 8 6 6 4 9 8 10 10 11 10 12 12 12 9 8 11
Wind_Speed
3 5 5 7 8 7 7 8 9 11 10 11 11 5 3 4 7 8 1 14 8 6 3 5 6 2 5 7 5 4 1 3 1 7 8 11 12 10 10 10 9 10 11 8 9 10 10 11 12 11 10 9 11 11 11 11 10 11 9 9 9 6 4 4 6 7 7 6 7 7 6 6 5 5 5 3 3 3 4 5 6 5 5 5 4 6
5 5 8 8 9 10 9 8 9 12 11 9 7 6 7 5 7 9 4 5 6 4 2 2 1 2 4 7 9 5 5 3 6 4 3 11 13 11 13 12 11 9 4 6 7 7 8 10 13 12 11 11 12 11 12 12 12 10 10 10 9 7 4 3 6 7 5 1 1 2 7 7 5 4 6 6 6 5 5 6 5 5 3 4 4 5
5 8 9 11 10 10 11 8 9 12 10 7 4 5 4 7 5 9 1 6 3 2 4 3 1 2 5 5 8 10 7 5 3 6 7 14 10 11 12 12 10 8 8 8 7 6 8 11 13 12 11 11 13 14 15 14 14 13 11 10 8 7 3 5 7 2 1 4 3 4 1 7 7 4 4 5 5 5 6 6 5 5 3 3 5 4
4 8 16 12 9 9 9 11 8 10 9 5 3 4 8 5 3 5 4 1 4 3 3 4 3 5 4 5 6 6 6 5 5 8 5 15 15 15 15 14 14 11 12 12 11 9 8 11 12 13 13 13 12 12 10 11 12 8 7 8 8 7 6 7 4 2 6 6 6 5 2 1 3 4 2 4 5 4 5 6 5 4 4 3 5 5
11 11 9 10 11 10 9 8 8 3 1 0 1 1 4 4 5 6 5 6 1 2 3 4 1 2 2 4 6 8 6 5 7 4 6 3 12 13 15 13 14 16 16 13 10 10 10 12 13 13 11 9 10 11 11 12 11 9 10 10 10 9 8 8 7 5 6 6 6 5 5 5 5 1 5 7 5 4 4 6 5 6 5 5 4 8
13 12 9 14 13 13 10 9 6 5 0 1 1 3 3 8 11 11 11 7 7 6 2 3 2 2 3 5 10 7 4 6 4 8 7 9 2 5 14 14 12 13 15 17 17 15 14 14 10 10 10 12 11 10 9 10 12 12 11 11 11 9 8 7 8 9 8 3 6 7 8 6 4 2 4 4 7 6 6 7 5 4 5 5 5 5
8 5 8 11 15 14 14 9 3 5 1 1 2 2 5 8 8 9 13 6 2 3 4 2 4 3 2 2 4 6 5 10 7 7 12 4 7 9 7 3 5 10 7 6 8 10 12 11 11 10 13 13 9 6 8 11 11 11 11 13 12 9 8 9 9 10 11 4 3 1 5 4 2 5 6 6 3 5 4 3 7 6 5 6 6 5
6 8 7 5 10 3 2 2 0 6 5 3 1 6 4 8 9 10 10 7 6 2 4 2 1 1 3 7 6 7 3 2 7 15 10 10 9 12 8 6 4 4 7 9 10 12 8 1 7 14 14 10 9 9 9 11 12 12 12 13 13 10 9 8 9 11 11 12 12 10 8 5 5 8 7 6 6 5 4 5 6 6 6 5 4 5
9 8 7 5 4 4 5 4 2 3 2 3 6 10 12 4 4 8 8 4 3 0 5 3 4 3 0 4 7 9 4 7 8 8 9 11 12 11 10 8 5 6 5 12 12 13 14 12 7 4 3 3 5 6 7 10 10 11 11 12 12 11 10 10 11 11 12 12 12 11 10 10 7 7 6 5 5 6 5 5 5 5 6 5 6 6
4 9 9 11 3 4 3 2 4 4 5 5 6 6 4 5 4 1 3 3 4 3 4 3 1 3 4 4 6 4 7 6 4 6 8 12 10 9 8 9 11 12 10 8 11 11 12 11 11 13 8 7 4 1 1 7 9 10 9 9 12 12 11 12 13 12 12 12 10 10 9 12 8 7 6 6 6 6 5 5 5 5 5 6 4 5
6 3 6 4 6 5 5 4 3 5 8 3 10 9 7 4 5 1 3 2 4 1 3 2 1 3 4 3 6 4 2 1 2 3 5 7 10 10 7 8 8 8 7 7 9 8 7 4 4 2 3 3 4 3 4 3 6 10 7 6 9 11 12 12 11 10 11 10 9 10 11 12 10 9 9 8 7 6 6 5 6 6 6 8 7 7
8 6 3 1 2 3 7 4 6 6 5 9 1 2 1 5 2 3 2 3 1 4 3 3 5 1 4 2 5 2 4 5 5 6 7 9 10 9 8 8 9 9 6 5 4 4 6 7 7 5 4 4 5 5 10 12 11 9 5 5 6 7 8 8 6 7 8 8 8 8 12 12 11 10 9 10 9 8 8 7 6 6 6 6 6 6
7 4 1 3 3 9 3 1 4 3 3 1 2 2 3 2 2 2 1 2 3 4 3 5 7 8 1 1 1 4 5 6 8 8 9 11 11 10 10 9 7 8 8 8 9 9 7 6 5 3 3 4 4 8 11 12 13 9 6 4 5 8 6 8 8 10 9 7 9 9 9 11 10 9 9 8 9 8 8 7 6 6 7 7 6 7
5 4 4 4 3 3 5 5 1 5 1 3 4 2 4 2 0 2 2 3 3 4 3 4 2 1 2 2 4 4 5 6 6 9 12 14 13 14 14 12 10 10 9 8 9 8 8 7 6 6 5 6 7 8 8 10 12 15 11 9 7 9 7 6 7 10 10 9 9 10 10 11 10 9 9 8 8 8 7 7 7 7 8 8 7 7
1 3 6 2 3 5 3 5 6 4 4 8 4 5 7 4 2 3 3 4 8 6 1 0 0 2 3 1 3 3 4 7 9 13 12 12 12 10 12 13 12 9 8 8 8 7 7 8 7 8 9 7 8 9 9 7 2 10 15 15 16 12 10 10 10 10 11 9 8 9 8 9 11 10 9 8 7 7 8 7 8 7 7 7 7 7
5 5 5 8 5 10 7 8 7 6 5 3 5 5 2 6 4 5 3 1 0 2 3 2 1 1 4 3 1 4 7 10 12 14 13 13 12 12 13 12 9 8 8 7 7 5 5 5 6 5 3 4 6 9 6 8 9 11 14 16 14 14 13 12 11 11 11 10 8 7 6 7 9 10 9 8 6 6 7 7 8 8 8 8 7 7
2 3 5 9 9 11 10 9 7 4 3 4 7 8 10 6 3 1 3 3 5 4 3 2 3 3 1 2 6 8 13 15 14 13 12 11 11 12 11 9 10 9 8 7 7 6 7 6 5 4 1 0 1 6 10 12 9 2 5 9 11 12 11 10 9 8 7 8 8 8 5 4 5 9 12 10 9 7 6 6 7 7 8 8 7 7
2 4 1 2 4 8 11 11 8 10 7 1 3 6 8 8 3 3 4 1 1 3 2 5 5 3 0 0 6 10 11 11 11 11 9 11 13 13 9 9 9 11 11 7 7 7 7 6 3 3 3 1 3 3 2 4 4 1 3 4 6 2 1 1 2 5 6 6 6 6 6 3 5 5 9 10 10 8 7 5 5 7 7 8 8 8
3 1 1 4 7 4 11 6 4 5 7 7 9 0 3 0 5 2 1 1 1 0 1 2 5 3 1 1 3 8 9 8 8 9 12 13 13 12 12 12 10 11 12 13 12 12 12 10 7 6 5 6 4 2 3 3 4 4 5 8 7 7 5 6 2 2 4 4 3 5 5 5 4 3 3 4 6 6 7 6 6 8 8 8 8 8
3 2 4 2 5 2 2 4 2 5 5 6 3 6 2 3 2 1 3 2 5 2 1 1 6 0 0 1 3 5 7 7 7 8 9 10 11 10 9 9 9 10 11 12 14 16 17 19 17 10 10 10 5 5 3 2 2 2 3 7 7 5 3 2 6 3 5 5 3 4 4 4 4 3 4 5 6 6 6 6 8 9 9 10 8 8
3 4 3 4 4 1 5 3 4 2 1 3 3 3 1 1 3 3 2 2 2 2 4 3 1 2 2 5 5 5 4 3 4 7 9 10 10 10 8 8 8 11 12 13 14 14 14 16 17 17 13 9 7 6 4 2 2 2 1 4 7 9 9 9 6 6 8 6 5 5 6 6 5 5 4 5 6 6 5 5 8 9 9 9 8 8
3 1 8 1 3 2 1 6 2 1 2 6 1 2 3 2 2 5 6 1 2 2 2 3 3 1 4 3 6 7 6 4 4 8 9 11 11 10 9 10 10 11 13 14 14 14 12 12 14 13 13 11 7 6 7 6 3 2 1 2 7 6 5 8 10 11 9 8 5 3 5 5 4 5 4 6 7 6 5 7 9 10 9 9 7 7
1 0 4 1 1 2 5 2 3 5 13 14 11 6 4 4 3 3 1 4 1 3 4 4 7 0 1 1 2 3 3 5 6 8 9 8 8 8 7 8 11 15 16 16 16 14 12 12 11 12 13 13 13 9 8 9 10 8 4 4 5 4 1 6 9 8 8 6 6 2 3 4 5 4 6 7 7 7 8 9 9 9 10 9 7 6
6 2 2 2 3 5 7 8 10 14 9 11 11 8 8 5 1 3 2 2 2 2 4 1 4 1 1 2 4 3 3 5 8 9 9 8 7 7 9 10 13 15 15 14 13 12 12 12 11 12 14 15 15 14 13 10 10 9 6 5 5 4 5 6 6 8 8 7 7 7 5 5 5 6 6 8 7 9 9 9 9 8 9 8 7 6
2 3 3 2 1 5 8 7 7 8 10 6 4 5 6 3 3 0 2 4 4 3 4 6 3 1 2 1 3 6 9 11 10 10 11 11 9 10 12 12 14 15 13 13 13 13 13 13 14 13 12 11 11 12 13 13 12 11 12 8 5 3 4 5 4 9 12 6 7 5 3 4 5 6 5 3 5 9 10 11 9 8 9 8 6 5
5 0 3 2 1 2 1 1 3 5 6 3 6 9 10 10 7 4 2 2 4 5 7 5 3 3 6 7 11 10 10 11 12 12 12 12 12 12 12 13 14 13 13 14 13 13 13 12 11 12 12 11 11 10 10 11 10 11 10 11 11 8 6 4 3 3 4 4 3 2 1 5 5 5 4 4 7 7 10 10 10 9 8 7 6 6
2 3 4 4 4 5 3 3 1 2 1 5 6 11 9 9 8 5 5 5 3 1 7 2 7 8 6 8 9 9 9 11 12 13 13 12 13 12 12 12 12 12 12 12 12 11 11 12 13 13 12 11 11 11 9 10 11 11 10 11 11 10 9 7 3 5 4 7 6 6 8 9 5 3 8 5 8 5 10 10 9 9 8 6 7 7
4 6 5 3 4 5 6 4 2 7 7 7 7 5 10 10 5 10 5 3 0 4 5 1 9 9 7 9 9 9 10 10 10 11 11 11 11 12 12 12 13 12 11 11 12 12 13 12 12 13 13 13 12 12 11 10 10 10 10 10 11 10 10 8 1 0 4 7 7 8 8 8 3 3 5 6 6 5 8 10 9 8 6 7 7 6
3 3 4 6 2 3 4 5 10 10 11 10 11 10 10 9 12 10 7 3 2 1 7 3 7 10 9 10 9 10 10 10 10 10 10 9 10 12 12 13 12 12 12 13 12 12 12 12 12 12 13 12 13 13 12 11 11 12 11 11 11 11 9 10 2 5 5 4 6 7 4 3 3 3 1 5 1 1 8 9 8 7 8 8 6 5
3 1 2 6 4 2 5 4 10 14 11 15 12 11 11 11 10 11 11 10 11 11 11 12 13 13 10 9 10 10 10 10 9 8 9 12 12 11 11 12 12 12 12 12 12 12 11 12 12 12 12 13 13 13 13 12 12 11 11 11 12 12 11 11 1 6 6 8 8 5 6 4 5 5 1 7 5 0 1 7 6 7 8 8 6 4
1 2 3 5 2 6 11 13 13 13 14 13 12 12 10 8 11 11 11 11 8 9 9 11 12 11 8 8 9 9 9 8 10 13 12 10 11 12 12 12 12 12 12 12 12 12 12 12 12 12 13 13 13 13 12 11 11 11 12 11 12 13 12 11 12 8 6 9 9 9 8 6 7 6 4 5 5 5 4 8 7 6 7 8 10 10
2 2 2 1 4 4 7 12 11 12 16 15 12 12 10 8 8 8 9 6 5 4 5 10 8 6 6 8 9 10 10 12 12 11 9 9 10 10 11 12 12 12 12 13 13 13 13 13 13 13 13 13 13 13 12 11 10 12 13 12 11 12 12 14 14 12 12 6 6 9 9 9 9 8 6 6 5 5 7 8 9 10 9 10 12 12
1 4 1 3 3 2 6 11 10 7 4 6 8 9 6 9 10 8 10 12 11 4 5 5 4 4 6 6 10 10 11 12 11 10 8 8 8 9 10 10 10 11 12 13 13 12 12 12 12 12 12 11 11 11 12 11 11 12 12 12 10 9 14 14 13 13 13 12 9 6 8 9 9 8 6 3 1 1 8 11 11 11 11 11 9 11
1 2 0 2 2 4 8 7 4 2 4 1 3 7 4 5 9 12 8 11 12 9 6 5 6 6 6 7 10 9 10 10 10 8 8 7 7 8 10 10 10 10 10 9 9 10 10 10 10 11 11 11 10 11 9 10 10 10 10 10 11 12 11 14 15 14 13 13 13 11 8 9 10 10 8 8 4 2 9 11 10 10 10 9 11 12
3 1 1 1 4 4 6 9 4 3 1 2 2 5 8 12 15 16 13 13 11 9 8 8 7 7 7 8 9 10 11 10 10 10 9 9 8 8 8 8 9 9 9 10 10 9 10 11 11 11 12 11 11 10 10 11 11 9 12 12 13 13 12 11 15 15 14 14 14 12 11 8 10 10 9 10 7 7 10 10 10 10 8 9 11 11
2 1 1 0 2 2 3 0 3 2 4 5 4 5 2 5 6 7 12 12 11 10 7 7 7 7 7 8 8 8 9 8 10 12 11 11 10 8 8 8 8 9 10 10 10 10 9 10 10 10 10 9 10 10 11 10 9 10 11 11 12 12 12 11 14 15 14 15 14 12 11 9 9 11 10 9 9 10 10 9 9 9 9 11 11 9
1 1 3 1 1 5 3 5 6 6 4 5 2 4 3 1 3 2 6 7 9 7 7 5 5 4 5 8 8 6 8 9 11 10 9 9 9 8 8 8 8 8 8 9 9 10 10 8 8 7 7 9 10 11 11 9 9 10 11 12 11 11 11 12 14 14 14 13 13 12 11 11 10 12 12 11 11 11 9 9 9 7 6 13 10 9
2 3 1 3 1 6 7 6 3 2 2 2 1 3 1 1 1 2 5 4 6 8 7 4 5 4 4 2 2 5 5 4 9 7 7 7 7 6 6 7 7 8 9 8 9 10 10 10 9 9 8 8 10 10 9 10 10 10 12 11 10 11 12 14 14 12 13 12 11 12 12 12 11 11 12 11 11 9 8 7 7 8 7 10 11 9
3 4 5 4 2 4 3 5 2 2 2 1 4 5 7 2 2 1 1 4 3 6 6 6 6 6 5 4 4 2 7 2 4 4 3 5 6 6 6 6 5 6 7 7 8 9 10 10 10 10 10 10 11 10 9 9 10 11 13 12 11 11 13 13 12 12 12 11 9 11 11 12 12 12 13 12 10 9 8 8 7 6 9 9 10 9
7 4 4 1 2 3 4 4 3 2 2 0 6 7 7 2 0 2 1 0 3 5 6 5 6 6 5 4 4 9 5 7 6 3 2 5 5 7 8 9 9 9 8 7 7 7 7 8 10 12 12 12 11 9 9 8 10 12 12 12 11 14 13 11 10 9 9 9 10 11 12 11 12 12 11 11 9 8 7 5 6 6 8 9 9 9
4 4 3 3 3 7 9 3 3 2 1 1 5 8 4 4 1 1 2 1 2 5 6 6 7 7 6 7 5 7 7 7 6 4 4 5 7 8 8 8 8 9 9 9 8 7 8 9 9 10 10 8 9 9 9 8 10 11 11 11 13 14 11 9 7 7 7 8 10 12 12 11 12 12 10 9 8 7 7 6 7 8 10 10 8 8
5 1 2 5 6 4 3 5 3 3 1 5 7 5 2 1 3 4 2 4 7 7 7 8 8 8 8 9 8 8 7 7 6 5 5 6 6 5 6 7 8 9 9 8 9 8 8 8 9 9 9 8 8 8 9 9 11 10 10 11 13 10 8 8 8 7 7 8 9 8 10 11 10 9 9 9 8 8 8 7 8 9 8 7 7 7
2 2 2 2 2 1 3 4 4 1 1 8 8 4 5 2 3 5 7 8 7 7 7 7 7 7 7 9 9 8 8 7 6 5 5 6 6 7 7 8 8 9 9 10 10 10 7 7 8 8 7 6 7 6 7 9 11 10 10 12 10 8 8 8 8 9 9 9 9 10 10 9 9 9 9 9 9 8 8 6 6 5 4 5 5 6
3 2 2 1 1 3 3 3 2 0 3 7 5 4 2 6 7 7 7 8 6 5 5 6 7 7 7 9 9 8 7 6 5 5 5 5 5 5 6 6 6 7 7 8 8 9 8 7 7 7 6 5 6 5 5 7 8 9 10 11 7 7 8 9 8 9 10 10 10 10 10 9 9 8 7 8 7 7 8 7 6 5 4 2 1 3
8 3 1 6 3 2 3 4 1 0 4 7 10 8 8 8 7 9 8 8 7 5 5 6 7 7 7 8 8 7 6 5 5 4 5 4 4 5 5 6 6 6 7 7 8 8 8 8 8 6 7 7 5 4 5 5 6 7 8 5 6 7 7 8 9 10 10 9 9 9 9 10 10 10 10 9 9 8 7 8 7 9 8 9 8 7
1 3 3 10 10 11 11 6 3 5 7 9 9 8 10 10 9 8 8 7 6 6 5 6 6 6 6 5 7 6 5 4 4 4 4 4 4 4 5 5 6 6 6 6 7 7 7 7 7 7 7 8 7 6 4 4 4 5 3 2 3 4 5 7 8 8 8 9 8 8 8 9 9 9 9 8 8 7 7 6 6 7 6 7 7 7
2 3 3 7 7 1 7 3 9 10 10 12 12 11 10 9 9 8 8 7 7 7 7 7 7 7 8 7 7 6 6 5 6 5 4 4 4 4 4 3 3 4 5 5 5 5 6 5 6 7 7 7 6 6 5 3 3 3 1 1 2 2 2 2 3 4 4 5 5 6 6 7 7 7 7 7 7 7 6 7 6 7 7 7 6 7
5 3 10 6 9 8 6 8 10 11 12 10 9 9 10 11 10 9 7 7 8 7 8 8 8 8 6 7 6 6 6 4 5 3 3 2 2 2 2 2 1 3 3 3 3 4 5 5 5 7 7 7 7 4 5 5 2 1 1 1 2 3 3 4 3 3 2 3 3 3 3 4 6 6 5 5 6 7 7 6 5 7 7 6 5 6
5 3 4 3 8 8 10 9 11 12 11 10 8 7 8 8 9 9 9 10 9 9 9 8 7 8 7 7 5 5 4 3 3 2 3 2 2 2 1 1 0 0 1 2 3 3 3 4 6 6 7 6 7 7 5 3 4 4 2 0 2 1 3 3 3 4 4 3 4 4 3 3 3 4 5 6 7 7 6 5 6 5 6 6 4 3
7 9 7 8 11 6 7 9 8 8 6 7 8 9 9 9 9 9 8 9 8 8 6 6 4 4 6 8 7 6 6 4 3 3 3 2 2 1 1 1 1 1 1 1 0 1 1 2 3 5 6 7 6 6 7 7 6 4 2 4 5 3 2 1 3 3 4 5 5 4 4 2 5 3 4 5 5 6 8 10 12 8 6 5 10 13
8 10 6 4 5 7 8 8 6 8 9 9 10 9 10 9 9 9 9 10 9 8 7 7 7 5 5 5 5 7 6 5 5 4 4 3 3 4 3 2 2 2 2 2 1 1 1 1 0 2 4 5 6 7 7 7 5 6 7 6 5 5 4 3 2 4 4 4 5 6 5 4 2 3 5 4 5 6 6 5 7 10 10 8 7 9
Wind_Direction
137 179 204 209 223 227 229 226 239 249 246 259 275 288 246 274 280 265 101 165 147 129 177 195 217 218 288 301 291 300 57 349 308 183 144 160 162 161 165 172 178 184 186 181 172 162 146 133 127 130 127 122 123 134 141 151 160 162 166 153 173 179 118 109 121 148 182 172 176 160 150 143 160 147 137 141 135 141 142 143 140 142 138 149 145 136
172 176 231 221 215 230 238 221 234 259 268 274 296 316 308 302 286 299 206 164 114 104 244 122 85 318 310 316 309 316 355 244 210 234 153 166 165 170 169 176 182 177 126 146 158 152 138 133 125 128 129 131 130 147 156 162 166 167 159 165 162 129 78 63 138 178 198 231 269 150 147 140 122 137 155 155 161 161 159 154 138 149 161 148 160 137
194 206 226 224 222 222 237 235 221 226 250 263 265 285 331 296 316 315 139 157 112 128 201 147 103 315 302 298 305 312 288 247 237 174 185 167 167 171 176 175 162 150 156 159 159 147 133 126 122 127 135 147 155 162 169 169 164 166 163 163 151 120 112 144 151 145 81 70 45 351 351 141 143 194 174 148 156 146 156 142 131 147 159 147 141 109
205 240 218 211 227 230 235 240 228 229 233 233 285 270 246 263 347 311 304 190 186 161 143 96 126 240 239 261 264 262 255 289 272 264 193 170 177 182 182 177 170 161 160 170 166 155 132 124 130 141 153 163 168 168 162 165 164 152 148 150 124 138 135 130 151 118 128 121 109 107 75 23 122 149 140 126 136 134 148 138 131 154 161 163 157 112
211 221 196 213 227 231 237 237 242 183 255 310 121 330 324 298 279 264 267 298 296 349 126 122 123 345 261 270 292 278 268 276 276 260 296 210 189 190 183 180 168 169 169 165 156 149 143 138 151 156 159 160 165 170 164 159 156 156 155 152 150 156 149 146 156 142 136 122 95 108 91 68 79 45 124 128 131 148 158 131 145 171 164 165 145 122
240 228 185 197 215 230 236 247 230 128 27 9 279 194 245 289 291 302 310 341 17 337 271 149 335 295 266 225 240 259 287 295 266 265 256 270 236 187 182 181 187 173 166 164 167 160 153 152 147 150 159 171 176 163 155 156 157 156 156 145 144 149 142 152 143 137 136 159 135 153 134 135 159 175 100 134 149 163 170 175 154 164 168 160 150 154
240 228 216 193 204 217 218 217 181 119 149 59 263 227 218 238 268 288 291 323 336 248 289 100 189 275 318 272 265 264 267 268 323 324 265 243 17 31 22 311 196 175 162 142 132 132 143 146 154 168 177 180 152 138 153 155 160 155 147 143 145 151 147 151 140 134 138 147 131 190 119 110 212 167 188 160 174 162 168 150 154 184 172 162 163 166
216 239 245 240 186 151 65 87 245 122 134 237 253 270 246 226 228 237 247 244 232 242 285 18 140 223 319 297 293 295 282 94 69 50 17 56 47 30 38 58 158 149 147 126 98 76 60 87 178 186 195 173 149 162 159 152 153 153 151 148 148 151 144 145 141 148 153 154 168 162 148 144 199 211 170 170 162 159 156 164 176 163 173 169 157 172
198 215 232 254 211 157 185 183 166 161 166 208 211 226 256 231 216 253 241 269 263 63 292 350 14 342 262 268 278 264 274 10 31 70 57 37 43 37 24 36 44 159 105 118 125 129 143 170 205 266 277 50 143 172 161 154 147 144 151 149 142 135 130 143 155 156 166 170 168 165 154 151 189 185 163 152 153 156 168 160 177 170 164 153 159 190
221 198 203 226 154 175 155 151 158 187 199 223 243 259 285 292 285 282 102 46 357 30 308 299 153 254 285 267 337 350 59 41 7 27 61 63 52 39 39 31 47 76 96 108 126 145 165 172 183 200 165 151 141 107 68 143 136 135 146 146 138 133 144 161 170 169 173 175 169 157 164 160 165 158 151 150 157 163 167 166 178 177 152 158 166 176
268 264 215 201 174 180 164 184 205 204 233 211 202 228 255 278 281 304 83 79 28 27 228 255 276 166 276 334 29 34 2 22 336 17 26 55 56 53 32 39 59 67 82 122 148 164 161 153 155 56 59 77 66 64 17 114 122 119 132 134 151 156 159 170 175 172 176 175 174 169 162 152 155 157 157 154 156 164 172 177 184 172 166 161 168 160
251 259 226 209 12 183 146 150 192 240 225 219 167 197 35 337 20 33 346 33 172 274 269 302 292 264 241 329 320 351 35 38 60 44 31 40 47 46 36 33 49 55 62 61 54 37 39 47 46 54 67 83 89 72 50 51 27 13 51 131 175 185 160 161 167 180 189 179 175 182 161 154 158 159 164 163 165 171 174 177 179 170 151 143 143 147
250 245 209 200 118 93 100 60 319 268 260 67 48 27 103 269 58 335 28 306 234 230 238 228 234 271 1 185 266 33 22 29 36 38 32 40 43 33 31 37 51 52 47 44 39 30 31 39 55 66 76 97 110 92 85 84 75 74 100 171 190 198 179 175 172 183 190 185 181 181 173 158 154 154 162 163 166 168 169 172 172 154 150 144 141 145
263 253 240 240 125 138 103 118 289 315 222 132 161 147 123 173 168 228 244 202 255 244 222 197 58 146 194 68 2 25 19 39 48 45 44 42 39 37 36 41 43 34 30 37 34 26 17 16 19 18 25 50 58 73 81 94 120 132 159 175 211 211 196 173 177 186 191 194 187 184 180 164 157 155 159 167 166 168 169 171 168 159 153 153 154 154
229 244 263 217 228 124 138 163 174 209 180 198 171 165 172 160 157 194 193 206 211 211 238 272 92 202 130 229 294 50 46 45 43 46 44 41 40 42 38 39 42 36 24 30 44 30 17 5 6 12 5 16 48 64 75 60 211 164 160 177 185 205 204 190 181 189 195 195 193 189 194 181 161 155 157 164 171 167 167 168 161 157 150 148 153 150
206 199 232 205 221 155 176 196 189 241 295 221 198 165 135 214 167 215 203 131 97 42 8 348 117 351 138 220 8 48 42 42 46 43 39 29 31 36 36 29 23 20 17 23 27 22 15 10 1 14 23 36 89 92 118 185 188 194 180 178 184 188 194 197 181 183 193 196 191 192 200 211 178 155 145 146 151 160 164 170 162 155 150 147 142 140
261 286 187 189 203 163 178 162 208 174 183 264 164 185 205 194 181 246 309 232 103 57 251 172 70 1 45 16 28 44 37 30 34 30 31 27 31 39 37 26 13 8 10 21 22 10 9 13 3 353 345 187 191 175 182 193 191 170 192 185 180 190 195 199 192 177 185 193 193 189 196 235 224 167 156 157 164 164 168 166 158 153 153 147 141 145
135 242 222 340 227 178 186 176 180 176 195 264 305 253 213 189 186 160 218 291 141 139 256 146 157 178 186 315 334 32 34 27 29 13 13 25 27 36 30 27 15 11 11 11 31 26 10 354 357 339 331 294 252 234 73 26 29 47 289 256 210 187 298 272 197 177 190 198 196 184 185 221 253 211 169 160 162 163 162 161 151 144 145 147 144 143
237 291 285 193 263 222 167 163 196 212 184 175 215 98 71 250 212 265 223 288 100 190 227 67 110 87 85 241 353 34 40 29 32 21 19 21 30 26 24 26 22 26 27 18 22 23 12 8 359 337 313 303 258 338 58 89 31 19 21 26 42 50 21 298 295 185 216 210 186 175 175 195 223 251 207 167 154 157 157 155 158 145 144 135 137 137
110 118 306 245 205 164 138 120 244 237 218 220 296 322 187 123 178 251 202 197 124 215 87 271 69 302 319 317 26 43 53 57 47 35 31 25 35 34 21 16 19 30 33 29 26 24 11 11 10 3 352 343 19 26 17 74 69 19 57 71 46 63 93 32 17 349 257 240 192 170 166 192 190 195 197 169 158 163 163 162 153 139 136 137 135 134
225 131 201 286 306 206 209 129 204 153 141 256 190 270 326 240 199 164 180 174 150 175 166 158 51 296 331 12 39 38 38 45 66 57 53 44 31 33 28 17 17 30 32 35 35 33 17 9 5 2 4 356 3 355 345 55 103 87 53 136 170 168 148 131 135 222 240 230 224 185 182 183 180 181 191 172 168 166 162 169 140 135 133 127 131 133
35 118 183 280 353 352 239 165 189 216 103 36 248 190 239 334 333 217 267 241 170 132 203 120 170 264 337 338 37 35 24 34 45 71 68 53 41 22 13 25 30 38 36 34 34 35 26 10 1 4 3 10 3 1 3 358 16 52 32 235 196 199 174 149 169 194 209 213 213 208 187 179 172 184 184 180 173 166 170 156 134 130 125 126 135 132
135 177 92 62 210 247 291 4 186 58 75 74 62 15 25 94 78 50 15 287 40 13 71 116 116 164 333 40 72 81 68 46 51 63 68 60 53 43 28 23 35 38 34 30 27 25 24 16 6 357 359 6 6 2 7 354 356 356 343 335 340 338 194 185 187 192 208 206 187 228 235 185 176 190 196 186 176 171 168 141 129 124 126 131 135 136
347 54 26 338 338 325 343 13 32 34 37 63 41 31 35 39 5 160 162 217 114 313 65 5 67 155 213 81 76 100 69 54 49 43 55 56 53 42 33 34 44 43 38 31 25 20 16 9 6 10 4 359 357 357 4 8 358 349 341 345 344 333 304 241 177 171 217 202 163 208 208 197 184 199 200 186 177 169 149 134 125 123 126 131 139 140
48 321 106 42 5 346 347 352 3 7 44 47 46 6 15 34 22 351 74 26 80 326 198 115 139 207 129 77 84 65 53 45 37 37 35 36 35 41 36 33 36 36 36 32 27 21 15 12 9 8 6 4 357 353 352 358 359 1 353 338 323 321 322 315 203 174 193 191 154 173 260 212 203 205 197 200 195 163 146 130 123 125 129 135 143 144
96 295 62 86 146 173 224 75 338 337 337 318 38 16 16 14 353 31 49 5 81 328 31 89 95 131 112 86 65 52 46 46 33 27 27 32 29 38 40 36 34 31 27 22 20 19 16 14 7 7 7 2 2 358 351 353 358 352 350 356 347 339 325 327 322 195 97 77 91 159 153 264 234 202 138 167 267 169 136 129 125 125 131 140 145 143
92 62 70 126 139 159 174 193 195 129 8 15 28 23 13 17 19 65 95 75 140 162 67 344 136 125 104 71 66 63 53 47 35 25 22 17 19 30 40 43 37 32 26 21 18 14 14 14 11 7 7 3 359 358 356 353 354 354 354 350 346 338 327 314 39 20 130 187 177 171 187 212 229 142 153 214 252 202 130 126 125 129 136 137 133 140
59 57 4 30 120 188 163 139 109 35 56 42 56 17 27 23 28 65 75 173 178 82 75 271 139 115 83 66 56 56 54 52 44 34 24 22 19 26 32 38 36 31 28 25 21 18 15 12 10 10 5 3 1 358 357 356 0 357 356 348 344 340 328 312 124 295 193 186 179 195 197 212 191 64 147 187 239 200 127 124 126 131 125 125 125 131
104 89 307 38 51 266 128 135 135 92 60 66 59 54 46 31 34 57 37 40 110 126 164 174 94 99 86 63 60 55 53 54 48 44 37 30 28 28 31 33 31 28 25 25 22 19 16 15 14 11 9 4 3 3 1 0 359 359 359 358 349 339 329 317 223 166 175 195 197 202 187 152 161 112 152 128 230 307 124 125 124 123 132 129 127 130
84 80 205 127 259 279 45 57 90 95 74 54 47 62 63 53 48 50 51 42 71 67 77 87 82 73 66 65 55 53 50 48 48 45 41 37 31 28 33 34 33 29 26 25 22 19 17 17 15 17 14 11 9 8 8 4 2 356 352 354 356 349 342 339 327 162 179 181 190 171 159 152 119 110 232 135 124 264 331 99 100 120 129 125 118 102
96 223 182 203 196 83 67 77 83 88 82 69 39 39 47 53 53 42 47 27 50 80 81 81 86 77 59 68 65 54 48 48 47 42 39 34 31 32 35 36 33 31 27 26 24 19 20 20 17 17 19 18 14 12 8 4 0 355 1 359 7 6 353 3 13 351 193 169 177 156 154 151 134 116 104 117 123 172 153 95 88 87 84 74 80 81
137 220 192 203 105 116 102 99 103 94 86 72 43 27 34 35 42 19 49 12 44 46 92 95 68 72 92 77 70 56 52 48 46 42 40 36 33 32 37 36 34 32 30 30 26 24 23 21 17 17 20 18 17 16 13 6 1 11 6 358 8 12 10 22 15 13 6 2 109 122 128 132 131 125 138 145 168 170 122 95 84 82 86 89 86 85
128 146 125 149 88 98 145 133 141 135 73 43 15 351 25 78 97 71 48 36 21 2 59 54 83 52 70 80 76 60 58 55 52 40 38 43 38 37 36 34 33 32 32 34 33 29 24 20 17 17 17 17 15 15 13 9 15 19 8 4 356 10 32 26 24 14 18 15 12 63 100 111 114 105 102 58 8 187 101 94 95 95 91 89 94 90
82 75 125 132 116 147 144 144 128 54 74 69 345 341 14 96 89 72 48 38 25 36 79 75 70 68 77 78 79 77 64 53 50 46 41 37 40 39 40 37 31 25 20 22 33 35 31 26 25 22 19 17 16 15 13 17 18 18 16 14 12 19 29 39 28 23 16 22 17 7 49 80 88 88 89 82 47 62 87 91 91 94 98 102 93 88
80 69 238 182 105 180 154 128 89 87 106 109 35 33 69 88 84 83 65 44 38 40 77 82 87 88 86 87 96 90 80 65 50 46 44 38 41 46 41 32 28 19 12 10 18 33 36 31 27 25 21 17 16 17 18 20 15 15 27 21 23 23 21 38 44 28 21 23 23 15 21 49 80 84 84 87 84 73 75 83 83 81 86 87 86 87
78 117 266 11 121 67 55 3 130 132 136 147 92 40 53 116 117 98 61 44 38 32 43 77 66 89 103 107 111 119 105 90 64 42 44 49 46 48 44 38 32 22 22 18 18 17 29 36 36 30 28 22 21 22 23 21 12 27 33 28 32 24 28 26 50 42 25 26 23 20 20 23 65 76 69 67 73 70 69 73 78 91 94 85 81 83
69 34 71 337 68 115 85 51 88 117 101 22 14 7 24 36 355 63 94 42 31 30 31 65 80 65 109 139 154 161 144 89 61 48 36 46 49 46 47 46 39 35 31 28 23 25 23 29 34 34 35 36 32 28 23 16 21 30 35 38 29 33 29 34 42 44 36 27 25 19 27 23 35 65 70 66 63 64 58 72 76 61 70 91 83 82
90 105 237 99 14 115 126 98 105 172 150 121 10 310 321 195 219 126 115 97 29 21 10 38 67 79 52 71 140 199 204 42 49 44 21 24 25 38 46 50 48 46 44 38 36 36 35 32 27 22 24 35 41 34 24 20 27 32 40 36 32 37 39 39 40 36 42 33 24 25 28 34 28 51 58 59 59 59 62 63 69 74 63 83 93 84
48 106 130 113 159 69 83 112 104 147 90 80 352 318 313 262 233 179 64 69 25 17 15 31 53 47 39 22 352 290 171 94 82 63 12 15 23 17 27 28 38 49 50 47 40 41 39 40 40 35 32 33 36 27 22 23 29 39 39 34 31 33 39 40 39 38 39 36 26 35 35 36 34 39 50 53 47 49 52 56 67 80 85 83 84 87
44 355 23 38 56 98 106 76 98 46 139 291 315 312 305 221 103 70 134 42 22 27 16 45 53 42 19 27 47 44 77 128 126 120 12 38 45 33 33 28 25 28 41 44 46 46 48 42 40 39 36 35 31 23 24 21 36 42 40 35 33 35 32 25 27 31 39 40 40 39 37 40 39 37 44 48 47 44 48 48 67 73 93 88 89 91
16 341 53 105 93 85 94 102 108 102 74 240 297 296 325 347 112 141 201 76 74 47 38 52 60 57 49 42 40 84 50 74 101 83 56 56 54 42 34 36 37 33 33 36 40 39 44 44 46 46 39 34 30 27 26 28 38 40 38 36 37 32 23 14 9 17 30 40 45 44 40 35 39 39 37 44 48 48 47 47 60 65 65 73 76 89
23 345 13 51 37 75 105 88 95 73 232 293 303 310 332 193 145 148 96 93 84 68 64 70 75 72 75 75 75 86 100 92 91 80 71 61 62 54 43 36 36 33 30 32 31 37 43 42 45 47 44 35 33 30 27 33 40 37 35 37 37 24 11 14 14 17 24 38 46 43 44 39 26 25 27 23 26 37 41 41 51 58 59 71 83 87
326 31 44 42 305 49 58 109 106 87 32 335 303 317 357 95 100 104 104 80 80 85 81 73 76 75 84 86 81 88 90 85 79 79 74 64 57 52 45 38 33 31 28 26 28 22 26 40 37 37 39 32 37 37 37 40 43 36 32 37 26 16 17 17 19 25 30 35 45 48 48 44 37 35 35 39 33 40 34 14 24 53 72 89 96 98
293 129 102 119 266 96 64 74 113 205 273 347 60 95 22 85 125 115 110 97 93 94 93 98 87 96 96 100 104 99 94 89 73 64 65 60 60 57 50 40 34 27 23 21 22 20 20 34 31 31 26 29 28 31 35 44 50 44 41 32 10 13 17 18 21 27 33 30 32 43 46 44 44 41 43 48 49 48 48 44 47 48 43 41 110 141
4 67 328 115 338 93 97 102 163 251 88 60 71 80 76 75 85 93 97 106 113 101 102 98 103 99 102 104 99 95 88 86 95 88 84 78 69 58 50 39 30 26 21 16 16 12 20 25 24 22 29 26 27 15 21 40 54 49 54 32 23 20 20 22 23 24 32 34 35 39 41 46 39 31 31 34 41 42 37 38 34 37 28 44 35 40
99 78 112 74 70 82 69 71 102 91 88 81 72 78 80 79 76 82 90 98 82 80 74 87 92 94 93 96 102 98 97 115 107 94 87 81 74 58 48 36 24 21 23 22 16 11 16 15 13 17 20 18 17 20 12 29 52 61 65 51 42 34 41 40 38 36 30 29 32 39 45 47 45 40 30 29 37 41 34 42 42 50 46 49 44 42
322 353 43 87 158 128 88 132 108 101 87 81 78 78 82 87 91 95 98 93 95 92 88 80 79 82 85 87 81 80 77 68 69 63 63 66 67 63 55 46 25 19 21 25 11 7 11 12 12 9 5 6 359 7 13 24 41 70 77 52 26 39 53 54 45 36 29 31 26 37 49 58 51 48 40 25 20 32 36 40 32 44 44 47 47 52
50 106 89 86 96 78 118 137 119 113 107 112 116 110 106 106 106 107 106 110 113 116 112 111 109 99 98 88 89 92 89 86 87 88 86 80 80 90 85 84 33 359 347 352 2 8 7 6 3 356 6 2 337 344 354 358 10 125 100 59 38 36 33 40 41 35 18 8 2 12 43 78 76 75 57 45 42 26 18 30 42 58 47 35 30 59
165 215 68 160 99 113 122 123 117 109 103 104 109 111 115 120 121 125 129 131 130 121 122 125 130 127 122 120 122 117 109 107 112 119 114 117 78 44 63 158 193 237 306 0 9 14 8 7 359 355 358 356 351 340 351 355 343 348 31 300 166 130 59 48 25 22 15 8 20 17 28 102 110 94 85 77 61 49 38 16 14 40 57 33 12 13
93 91 121 112 111 118 127 128 135 119 129 131 128 139 141 142 141 136 130 119 117 118 122 122 115 128 136 144 141 137 134 152 148 147 136 135 143 151 271 302 190 192 198 193 204 335 40 20 10 356 352 348 347 352 356 349 14 359 351 18 31 82 111 21 14 18 6 357 359 1 5 76 131 131 106 96 89 81 59 44 52 43 48 35 16 32
117 144 142 119 111 128 131 122 110 118 119 136 147 148 144 147 142 142 141 140 140 143 146 142 147 153 162 168 159 141 148 156 186 177 163 177 180 197 215 207 223 253 230 227 227 228 185 179 153 345 352 335 342 348 346 353 358 23 10 1 11 51 72 87 40 354 345 354 355 348 337 334 47 135 137 121 118 112 106 92 38 42 48 52 49 40